Location: Andershausen
(51.8462°N, 9.8595°E)
Time: 06:55:03
(UTC+00:00)

Helios 1A Rocket - Pass Details

Date: 18 November 2025
Orbit: 439 x 451 km, 98.3° (Epoch: 11 December)

Event Time Altitude Azimuth Distance (km) Brightness Sun altitude
Exits shadow 17:15:14 18° 142° (SE) 1,185 4.3 -16.6°
Drops below altitude 10° 17:16:24 10° 157° (SSE) 1,571 5.0 -16.7°
Sets 17:18:38 0° 170° (S) 2,441 6.1 -17.1°
